Location: Oshawa
(43.9000°N, 78.8670°W)
Time: 11:27:29
(UTC-04:00)

Cosmos 1707 Rocket - Visible Passes

Search period start: 16 September 2014 00:00
Search period end: 26 September 2014 00:00
Orbit: 606 x 634 km, 82.5° (Epoch: 15 September)

Date Brightness Start Highest point End Pass type
(mag) Time Alt. Az. Time Alt. Az. Time Alt. Az.
16 Sep 6.8 23:35:53 10° NNW 23:35:53 10° NNW 23:35:56 10° NNW visible
18 Sep 6.3 22:33:39 12° N 22:33:39 12° N 22:34:00 10° N visible
19 Sep 6.4 22:51:05 13° N 22:51:05 13° N 22:51:36 10° N visible
20 Sep 6.6 23:08:28 12° NNW 23:08:28 12° NNW 23:08:55 10° NNW visible
21 Sep 5.9 21:48:41 13° NNE 21:48:41 13° NNE 21:49:15 10° NNE visible
22 Sep 5.8 22:06:00 17° N 22:06:00 17° N 22:07:03 10° N visible
23 Sep 5.9 22:23:16 19° NNW 22:23:16 19° NNW 22:24:37 10° N visible
24 Sep 5.6 21:03:20 15° NE 21:03:20 15° NE 21:04:16 10° NNE visible
24 Sep 6.2 22:40:28 17° NNW 22:40:28 17° NNW 22:41:52 10° NNW visible
25 Sep 5.1 21:20:26 25° NNE 21:20:26 25° NNE 21:22:19 10° NNE visible
25 Sep 6.6 22:57:35 12° NW 22:57:35 12° NW 22:58:31 10° NW visible
